Tabellarische Ansicht des 17.11.2017


Die einzelnen Werte des Tages

Uhrzeit Temperatur Luftdruck Luftfeuchte Wind Hi-Wind Taupunkt THW Index Wind Chill Heat Index Solar- strahlung Regen

00:00

8.4 C

1019.2 hpa

94 %

8.0 km/h aus 117

11.3 km/h aus SSW

7.5 C

7.3 C

7.1 C

8.6 C

0 W/m

0.00 mm

00:05

8.4 C

1019.2 hpa

94 %

8.0 km/h aus 115

14.5 km/h aus SW

7.5 C

7.3 C

7.2 C

8.6 C

0 W/m

0.00 mm

00:10

8.4 C

1019.2 hpa

94 %

9.7 km/h aus 116

14.5 km/h aus S

7.5 C

7.0 C

6.8 C

8.6 C

0 W/m

0.00 mm

00:15

8.4 C

1019.2 hpa

94 %

8.0 km/h aus 113

14.5 km/h aus SSE

7.5 C

7.3 C

7.2 C

8.6 C

0 W/m

0.00 mm

00:20

8.4 C

1019.2 hpa

94 %

8.0 km/h aus 117

11.3 km/h aus SSW

7.5 C

7.3 C

7.2 C

8.6 C

0 W/m

0.00 mm

00:25

8.4 C

1019.2 hpa

94 %

8.0 km/h aus 117

12.9 km/h aus SW

7.5 C

7.3 C

7.2 C

8.6 C

0 W/m

0.00 mm

00:30

8.4 C

1019.3 hpa

94 %

8.0 km/h aus 117

16.1 km/h aus SSW

7.5 C

7.3 C

7.2 C

8.6 C

0 W/m

0.00 mm

00:35

8.4 C

1019.3 hpa

94 %

8.0 km/h aus 97

14.5 km/h aus SSW

7.5 C

7.3 C

7.2 C

8.6 C

0 W/m

0.25 mm

00:40

8.4 C

1019.3 hpa

94 %

8.0 km/h aus 58

16.1 km/h aus SSW

7.5 C

7.3 C

7.2 C

8.6 C

0 W/m

0.00 mm

00:45

8.4 C

1019.2 hpa

94 %

6.4 km/h aus 50

11.3 km/h aus SSW

7.5 C

7.7 C

7.6 C

8.6 C

0 W/m

0.00 mm

00:50

8.5 C

1019.2 hpa

94 %

4.8 km/h aus 70

9.7 km/h aus SW

7.6 C

8.3 C

8.1 C

8.7 C

0 W/m

0.25 mm

00:55

8.5 C

1019.2 hpa

94 %

8.0 km/h aus 81

12.9 km/h aus SW

7.6 C

7.4 C

7.3 C

8.7 C

0 W/m

0.00 mm

01:00

8.5 C

1019.5 hpa

95 %

8.0 km/h aus 77

16.1 km/h aus SSW

7.7 C

7.4 C

7.3 C

8.7 C

0 W/m

0.00 mm

01:05

8.6 C

1019.5 hpa

95 %

6.4 km/h aus 53

11.3 km/h aus W

7.8 C

7.9 C

7.7 C

8.7 C

0 W/m

0.00 mm

01:10

8.6 C

1019.5 hpa

95 %

8.0 km/h aus 50

16.1 km/h aus WSW

7.8 C

7.5 C

7.3 C

8.7 C

0 W/m

0.00 mm

01:15

8.6 C

1019.6 hpa

95 %

8.0 km/h aus 52

14.5 km/h aus W

7.8 C

7.5 C

7.3 C

8.7 C

0 W/m

0.25 mm

01:20

8.6 C

1019.6 hpa

95 %

6.4 km/h aus 78

14.5 km/h aus WSW

7.8 C

7.9 C

7.7 C

8.7 C

0 W/m

0.00 mm

01:25

8.6 C

1019.6 hpa

95 %

6.4 km/h aus 85

14.5 km/h aus WSW

7.8 C

7.9 C

7.7 C

8.7 C

0 W/m

0.00 mm

01:30

8.6 C

1019.7 hpa

95 %

8.0 km/h aus 106

14.5 km/h aus WSW

7.8 C

7.5 C

7.3 C

8.7 C

0 W/m

0.00 mm

01:35

8.6 C

1019.7 hpa

95 %

8.0 km/h aus 103

12.9 km/h aus W

7.8 C

7.5 C

7.3 C

8.7 C

0 W/m

0.00 mm

01:40

8.6 C

1019.7 hpa

95 %

6.4 km/h aus 84

11.3 km/h aus SW

7.8 C

7.9 C

7.7 C

8.7 C

0 W/m

0.00 mm

01:45

8.6 C

1019.7 hpa

95 %

6.4 km/h aus 78

9.7 km/h aus W

7.8 C

7.9 C

7.7 C

8.7 C

0 W/m

0.00 mm

01:50

8.6 C

1019.7 hpa

95 %

4.8 km/h aus 72

9.7 km/h aus W

7.8 C

8.3 C

8.2 C

8.7 C

0 W/m

0.00 mm

01:55

8.5 C

1019.7 hpa

95 %

6.4 km/h aus 82

9.7 km/h aus WSW

7.7 C

7.8 C

7.7 C

8.7 C

0 W/m

0.00 mm

02:00

8.5 C

1019.8 hpa

95 %

6.4 km/h aus 89

9.7 km/h aus W

7.7 C

7.8 C

7.7 C

8.7 C

0 W/m

0.00 mm

02:05

8.4 C

1019.8 hpa

95 %

6.4 km/h aus 111

8.0 km/h aus WNW

7.7 C

7.7 C

7.6 C

8.6 C

0 W/m

0.00 mm

02:10

8.4 C

1019.8 hpa

95 %

4.8 km/h aus 109

9.7 km/h aus W

7.7 C

8.2 C

8.1 C

8.6 C

0 W/m

0.00 mm

02:15

8.4 C

1020.1 hpa

95 %

4.8 km/h aus 107

8.0 km/h aus W

7.7 C

8.2 C

8.1 C

8.6 C

0 W/m

0.00 mm

02:20

8.4 C

1020.1 hpa

95 %

3.2 km/h aus 115

6.4 km/h aus WSW

7.6 C

8.6 C

8.4 C

8.6 C

0 W/m

0.00 mm

02:25

8.4 C

1020.1 hpa

95 %

4.8 km/h aus 116

9.7 km/h aus W

7.6 C

8.2 C

8.0 C

8.6 C

0 W/m

0.00 mm

02:30

8.3 C

1020.1 hpa

95 %

4.8 km/h aus 116

9.7 km/h aus WSW

7.6 C

8.1 C

7.9 C

8.5 C

0 W/m

0.00 mm

02:35

8.3 C

1020.1 hpa

95 %

4.8 km/h aus 113

8.0 km/h aus WSW

7.6 C

8.1 C

7.9 C

8.5 C

0 W/m

0.00 mm

02:40

8.3 C

1020.1 hpa

95 %

4.8 km/h aus 114

8.0 km/h aus WSW

7.5 C

8.1 C

7.9 C

8.4 C

0 W/m

0.00 mm

02:45

8.3 C

1020.2 hpa

95 %

6.4 km/h aus 117

9.7 km/h aus W

7.5 C

7.6 C

7.4 C

8.4 C

0 W/m

0.00 mm

02:50

8.3 C

1020.2 hpa

95 %

4.8 km/h aus 117

8.0 km/h aus WNW

7.5 C

8.1 C

7.9 C

8.4 C

0 W/m

0.00 mm

02:55

8.3 C

1020.2 hpa

95 %

4.8 km/h aus 116

8.0 km/h aus WNW

7.5 C

8.1 C

7.9 C

8.4 C

0 W/m

0.00 mm

03:00

8.2 C

1020.3 hpa

95 %

3.2 km/h aus 116

8.0 km/h aus WNW

7.5 C

8.4 C

8.2 C

8.4 C

0 W/m

0.00 mm

03:05

8.2 C

1020.3 hpa

95 %

4.8 km/h aus 113

9.7 km/h aus W

7.5 C

8.0 C

7.8 C

8.4 C

0 W/m

0.00 mm

03:10

8.2 C

1020.3 hpa

95 %

4.8 km/h aus 114

11.3 km/h aus W

7.4 C

7.9 C

7.8 C

8.3 C

0 W/m

0.00 mm

03:15

8.2 C

1020.4 hpa

95 %

4.8 km/h aus 117

11.3 km/h aus W

7.4 C

7.9 C

7.8 C

8.3 C

0 W/m

0.00 mm

03:20

8.2 C

1020.4 hpa

95 %

4.8 km/h aus 114

11.3 km/h aus WNW

7.4 C

7.9 C

7.8 C

8.3 C

0 W/m

0.00 mm

03:25

8.1 C

1020.4 hpa

95 %

6.4 km/h aus 117

14.5 km/h aus W

7.4 C

7.3 C

7.2 C

8.3 C

0 W/m

0.00 mm

03:30

8.1 C

1020.6 hpa

95 %

6.4 km/h aus 105

11.3 km/h aus WNW

7.3 C

7.3 C

7.1 C

8.2 C

0 W/m

0.00 mm

03:35

8.1 C

1020.6 hpa

95 %

6.4 km/h aus 110

12.9 km/h aus W

7.3 C

7.3 C

7.1 C

8.2 C

0 W/m

0.00 mm

03:40

8.1 C

1020.6 hpa

95 %

6.4 km/h aus 114

11.3 km/h aus W

7.3 C

7.3 C

7.1 C

8.2 C

0 W/m

0.00 mm

03:45

8.0 C

1020.5 hpa

95 %

4.8 km/h aus 115

9.7 km/h aus WNW

7.2 C

7.7 C

7.6 C

8.2 C

0 W/m

0.00 mm

03:50

7.9 C

1020.5 hpa

95 %

6.4 km/h aus 114

14.5 km/h aus W

7.2 C

7.2 C

7.0 C

8.1 C

0 W/m

0.00 mm

03:55

7.9 C

1020.5 hpa

95 %

6.4 km/h aus 117

11.3 km/h aus W

7.2 C

7.2 C

7.0 C

8.1 C

0 W/m

0.00 mm

04:00

7.8 C

1020.7 hpa

95 %

6.4 km/h aus 112

11.3 km/h aus NW

7.1 C

7.0 C

6.8 C

8.0 C

0 W/m

0.00 mm

04:05

7.8 C

1020.7 hpa

95 %

6.4 km/h aus 106

16.1 km/h aus WNW

7.0 C

6.9 C

6.8 C

7.9 C

0 W/m

0.00 mm

04:10

7.7 C

1020.7 hpa

95 %

6.4 km/h aus 114

14.5 km/h aus WNW

7.0 C

6.9 C

6.7 C

7.9 C

0 W/m

0.00 mm

04:15

7.7 C

1020.8 hpa

95 %

6.4 km/h aus 111

14.5 km/h aus WNW

6.9 C

6.8 C

6.7 C

7.8 C

0 W/m

0.00 mm

04:20

7.6 C

1020.8 hpa

95 %

6.4 km/h aus 117

9.7 km/h aus W

6.9 C

6.8 C

6.6 C

7.8 C

0 W/m

0.00 mm

04:25

7.6 C

1020.8 hpa

95 %

4.8 km/h aus 117

9.7 km/h aus W

6.9 C

7.3 C

7.1 C

7.8 C

0 W/m

0.00 mm

04:30

7.6 C

1021.0 hpa

95 %

4.8 km/h aus 114

9.7 km/h aus WNW

6.8 C

7.2 C

7.1 C

7.7 C

0 W/m

0.00 mm

04:35

7.5 C

1021.0 hpa

95 %

4.8 km/h aus 109

8.0 km/h aus W

6.8 C

7.2 C

7.0 C

7.7 C

0 W/m

0.00 mm

04:40

7.4 C

1021.0 hpa

95 %

3.2 km/h aus 113

8.0 km/h aus W

6.7 C

7.6 C

7.4 C

7.6 C

0 W/m

0.00 mm

04:45

7.3 C

1021.2 hpa

95 %

4.8 km/h aus 110

6.4 km/h aus W

6.6 C

6.9 C

6.8 C

7.4 C

0 W/m

0.00 mm

04:50

7.2 C

1021.2 hpa

95 %

3.2 km/h aus 115

6.4 km/h aus W

6.5 C

7.3 C

7.2 C

7.3 C

0 W/m

0.00 mm

04:55

7.2 C

1021.2 hpa

94 %

3.2 km/h aus 114

6.4 km/h aus W

6.3 C

7.3 C

7.2 C

7.3 C

0 W/m

0.00 mm

05:00

6.9 C

1021.2 hpa

94 %

1.6 km/h aus 114

3.2 km/h aus W

6.0 C

7.1 C

6.9 C

7.1 C

0 W/m

0.00 mm

05:05

6.8 C

1021.2 hpa

94 %

3.2 km/h aus 108

6.4 km/h aus WSW

5.9 C

6.9 C

6.8 C

6.9 C

0 W/m

0.00 mm

05:10

6.7 C

1021.2 hpa

94 %

1.6 km/h aus 111

4.8 km/h aus WSW

5.8 C

6.8 C

6.7 C

6.8 C

0 W/m

0.00 mm

05:15

6.5 C

1021.3 hpa

94 %

3.2 km/h aus 114

4.8 km/h aus WSW

5.6 C

6.6 C

6.5 C

6.6 C

0 W/m

0.00 mm

05:20

6.3 C

1021.3 hpa

94 %

1.6 km/h aus 114

3.2 km/h aus WSW

5.4 C

6.4 C

6.3 C

6.4 C

0 W/m

0.00 mm

05:25

6.2 C

1021.3 hpa

94 %

1.6 km/h aus 111

3.2 km/h aus WSW

5.3 C

6.2 C

6.2 C

6.2 C

0 W/m

0.00 mm

05:30

6.0 C

1021.5 hpa

94 %

1.6 km/h aus 113

3.2 km/h aus WSW

5.1 C

6.1 C

6.0 C

6.1 C

0 W/m

0.00 mm

05:35

5.8 C

1021.5 hpa

93 %

1.6 km/h aus 105

3.2 km/h aus WSW

4.8 C

5.9 C

5.8 C

5.9 C

0 W/m

0.00 mm

05:40

5.7 C

1021.5 hpa

94 %

1.6 km/h aus 105

3.2 km/h aus WSW

4.8 C

5.7 C

5.7 C

5.7 C

0 W/m

0.00 mm

05:45

5.6 C

1021.7 hpa

94 %

3.2 km/h aus 102

3.2 km/h aus WSW

4.7 C

5.6 C

5.6 C

5.6 C

0 W/m

0.00 mm

05:50

5.4 C

1021.7 hpa

93 %

3.2 km/h aus 103

4.8 km/h aus WSW

4.3 C

5.4 C

5.4 C

5.4 C

0 W/m

0.00 mm

05:55

5.3 C

1021.7 hpa

93 %

3.2 km/h aus 96

4.8 km/h aus WSW

4.2 C

5.3 C

5.3 C

5.3 C

0 W/m

0.00 mm

06:00

5.2 C

1021.8 hpa

93 %

3.2 km/h aus 92

6.4 km/h aus WSW

4.1 C

5.1 C

5.1 C

5.2 C

0 W/m

0.00 mm

06:05

5.1 C

1021.8 hpa

93 %

3.2 km/h aus 95

4.8 km/h aus WSW

4.0 C

5.0 C

5.0 C

5.1 C

0 W/m

0.00 mm

06:10

5.0 C

1021.8 hpa

93 %

3.2 km/h aus 87

4.8 km/h aus WSW

4.0 C

4.9 C

4.9 C

5.0 C

0 W/m

0.00 mm

06:15

4.9 C

1021.8 hpa

94 %

3.2 km/h aus 81

4.8 km/h aus WSW

4.1 C

4.9 C

4.9 C

5.0 C

0 W/m

0.00 mm

06:20

4.9 C

1021.8 hpa

94 %

1.6 km/h aus 88

4.8 km/h aus WSW

4.0 C

4.9 C

4.9 C

4.9 C

0 W/m

0.00 mm

06:25

4.8 C

1021.8 hpa

94 %

1.6 km/h aus 79

3.2 km/h aus WSW

3.9 C

4.9 C

4.8 C

4.9 C

0 W/m

0.00 mm

06:30

4.8 C

1021.9 hpa

94 %

1.6 km/h aus 82

4.8 km/h aus WSW

3.9 C

4.8 C

4.8 C

4.8 C

0 W/m

0.00 mm

06:35

4.7 C

1021.9 hpa

94 %

1.6 km/h aus 79

4.8 km/h aus WSW

3.8 C

4.8 C

4.7 C

4.8 C

0 W/m

0.00 mm

06:40

4.7 C

1021.9 hpa

94 %

1.6 km/h aus 78

4.8 km/h aus WSW

3.8 C

4.7 C

4.7 C

4.7 C

0 W/m

0.00 mm

06:45

4.6 C

1022.2 hpa

94 %

1.6 km/h aus 75

6.4 km/h aus WSW

3.7 C

4.6 C

4.6 C

4.6 C

0 W/m

0.00 mm

06:50

4.5 C

1022.2 hpa

93 %

1.6 km/h aus 74

3.2 km/h aus WSW

3.5 C

4.5 C

4.5 C

4.5 C

0 W/m

0.00 mm

06:55

4.4 C

1022.2 hpa

93 %

0.0 km/h aus 73

1.6 km/h aus WSW

3.4 C

4.4 C

4.4 C

4.4 C

0 W/m

0.00 mm

07:00

4.3 C

1022.3 hpa

94 %

0.0 km/h aus 70

1.6 km/h aus WSW

3.5 C

4.3 C

4.3 C

4.3 C

0 W/m

0.00 mm

07:05

4.3 C

1022.3 hpa

94 %

0.0 km/h aus 69

1.6 km/h aus WSW

3.4 C

4.3 C

4.3 C

4.3 C

0 W/m

0.00 mm

07:10

4.2 C

1022.3 hpa

93 %

0.0 km/h aus 72

3.2 km/h aus WSW

3.1 C

4.2 C

4.2 C

4.2 C

0 W/m

0.00 mm

07:15

4.0 C

1022.4 hpa

93 %

0.0 km/h aus 72

1.6 km/h aus WSW

3.0 C

4.0 C

4.0 C

4.0 C

0 W/m

0.00 mm

07:20

3.9 C

1022.4 hpa

93 %

0.0 km/h aus 68

0.0 km/h aus ---

2.9 C

3.9 C

3.9 C

3.9 C

0 W/m

0.00 mm

07:25

3.7 C

1022.4 hpa

93 %

0.0 km/h aus 71

1.6 km/h aus WSW

2.7 C

3.7 C

3.7 C

3.7 C

0 W/m

0.00 mm

07:30

3.6 C

1022.5 hpa

93 %

0.0 km/h aus 70

1.6 km/h aus WSW

2.6 C

3.6 C

3.6 C

3.6 C

0 W/m

0.00 mm

07:35

3.6 C

1022.5 hpa

93 %

1.6 km/h aus 70

3.2 km/h aus WSW

2.5 C

3.6 C

3.6 C

3.6 C

0 W/m

0.00 mm

07:40

3.4 C

1022.5 hpa

93 %

0.0 km/h aus 70

1.6 km/h aus WSW

2.4 C

3.4 C

3.4 C

3.4 C

0 W/m

0.00 mm

07:45

3.4 C

1022.8 hpa

93 %

1.6 km/h aus 68

3.2 km/h aus WSW

2.4 C

3.4 C

3.4 C

3.4 C

0 W/m

0.00 mm

07:50

3.3 C

1022.8 hpa

93 %

1.6 km/h aus 70

3.2 km/h aus WSW

2.3 C

3.3 C

3.3 C

3.3 C

0 W/m

0.00 mm

07:55

3.2 C

1022.8 hpa

93 %

0.0 km/h aus 71

0.0 km/h aus ---

2.2 C

3.2 C

3.2 C

3.2 C

0 W/m

0.00 mm

08:00

3.2 C

1022.9 hpa

93 %

0.0 km/h aus 67

0.0 km/h aus ---

2.2 C

3.2 C

3.2 C

3.2 C

0 W/m

0.00 mm

08:05

3.2 C

1022.9 hpa

93 %

0.0 km/h aus 73

0.0 km/h aus ---

2.1 C

3.2 C

3.2 C

3.2 C

14 W/m

0.00 mm

08:10

3.1 C

1022.9 hpa

93 %

1.6 km/h aus 74

3.2 km/h aus WSW

2.1 C

3.1 C

3.1 C

3.1 C

18 W/m

0.00 mm

08:15

3.1 C

1023.2 hpa

93 %

1.6 km/h aus 65

3.2 km/h aus WSW

2.0 C

3.1 C

3.1 C

3.1 C

18 W/m

0.00 mm

08:20

3.1 C

1023.2 hpa

93 %

1.6 km/h aus 70

3.2 km/h aus WSW

2.0 C

3.1 C

3.1 C

3.1 C

18 W/m

0.00 mm

08:25

3.1 C

1023.2 hpa

94 %

1.6 km/h aus 70

3.2 km/h aus WSW

2.2 C

3.1 C

3.1 C

3.1 C

18 W/m

0.00 mm

08:30

3.1 C

1023.4 hpa

94 %

0.0 km/h aus 68

1.6 km/h aus WSW

2.2 C

3.1 C

3.1 C

3.1 C

18 W/m

0.00 mm

08:35

3.1 C

1023.4 hpa

94 %

0.0 km/h aus 65

0.0 km/h aus ---

2.2 C

3.1 C

3.1 C

3.1 C

18 W/m

0.00 mm

08:40

3.1 C

1023.4 hpa

94 %

0.0 km/h aus 66

0.0 km/h aus ---

2.2 C

3.1 C

3.1 C

3.1 C

18 W/m

0.00 mm

08:45

3.1 C

1023.4 hpa

94 %

0.0 km/h aus 70

1.6 km/h aus WSW

2.2 C

3.1 C

3.1 C

3.1 C

18 W/m

0.00 mm

08:50

3.1 C

1023.4 hpa

94 %

0.0 km/h aus 67

0.0 km/h aus ---

2.2 C

3.1 C

3.1 C

3.1 C

18 W/m

0.00 mm

08:55

3.1 C

1023.4 hpa

94 %

0.0 km/h aus 65

0.0 km/h aus ---

2.2 C

3.1 C

3.1 C

3.1 C

18 W/m

0.00 mm

09:00

3.1 C

1023.5 hpa

94 %

0.0 km/h aus 62

0.0 km/h aus ---

2.2 C

3.1 C

3.1 C

3.1 C

18 W/m

0.00 mm

09:05

3.2 C

1023.5 hpa

94 %

0.0 km/h aus 55

0.0 km/h aus ---

2.3 C

3.2 C

3.2 C

3.2 C

18 W/m

0.00 mm

09:10

3.2 C

1023.5 hpa

94 %

0.0 km/h aus 60

0.0 km/h aus ---

2.3 C

3.2 C

3.2 C

3.2 C

18 W/m

0.00 mm

09:15

3.6 C

1023.6 hpa

95 %

0.0 km/h aus 58

0.0 km/h aus ---

2.8 C

3.6 C

3.6 C

3.6 C

18 W/m

0.00 mm

09:20

3.7 C

1023.6 hpa

95 %

1.6 km/h aus 74

1.6 km/h aus WSW

2.9 C

3.7 C

3.7 C

3.7 C

18 W/m

0.00 mm

09:25

4.2 C

1023.6 hpa

96 %

0.0 km/h aus 100

0.0 km/h aus ---

3.6 C

4.2 C

4.2 C

4.2 C

91 W/m

0.00 mm

09:30

4.4 C

1023.5 hpa

96 %

0.0 km/h aus 102

0.0 km/h aus ---

3.9 C

4.5 C

4.4 C

4.5 C

123 W/m

0.00 mm

09:35

4.9 C

1023.5 hpa

97 %

0.0 km/h aus 111

3.2 km/h aus WSW

4.5 C

5.0 C

4.9 C

5.0 C

153 W/m

0.00 mm

09:40

5.1 C

1023.5 hpa

97 %

0.0 km/h aus 112

1.6 km/h aus WSW

4.7 C

5.2 C

5.1 C

5.2 C

163 W/m

0.00 mm

09:45

5.4 C

1023.6 hpa

97 %

0.0 km/h aus 114

1.6 km/h aus WSW

5.0 C

5.5 C

5.4 C

5.5 C

168 W/m

0.00 mm

09:50

5.7 C

1023.6 hpa

96 %

0.0 km/h aus 109

3.2 km/h aus WSW

5.1 C

5.7 C

5.7 C

5.7 C

164 W/m

0.00 mm

09:55

5.8 C

1023.6 hpa

96 %

1.6 km/h aus 108

3.2 km/h aus WSW

5.2 C

5.9 C

5.8 C

5.9 C

173 W/m

0.00 mm

10:00

6.0 C

1023.5 hpa

95 %

1.6 km/h aus 113

6.4 km/h aus WSW

5.3 C

6.1 C

6.0 C

6.1 C

194 W/m

0.00 mm

10:05

6.2 C

1023.5 hpa

95 %

1.6 km/h aus 110

4.8 km/h aus WSW

5.5 C

6.3 C

6.2 C

6.3 C

204 W/m

0.00 mm

10:10

6.4 C

1023.5 hpa

94 %

0.0 km/h aus 112

3.2 km/h aus WSW

5.5 C

6.4 C

6.4 C

6.4 C

212 W/m

0.00 mm

10:15

6.4 C

1023.6 hpa

93 %

1.6 km/h aus 115

3.2 km/h aus WSW

5.4 C

6.5 C

6.4 C

6.5 C

220 W/m

0.00 mm

10:20

6.6 C

1023.6 hpa

92 %

1.6 km/h aus 116

3.2 km/h aus WSW

5.4 C

6.7 C

6.6 C

6.7 C

229 W/m

0.00 mm

10:25

6.9 C

1023.6 hpa

92 %

1.6 km/h aus 117

3.2 km/h aus WSW

5.7 C

6.9 C

6.9 C

6.9 C

234 W/m

0.00 mm

10:30

6.9 C

1023.6 hpa

90 %

3.2 km/h aus 117

4.8 km/h aus WSW

5.4 C

6.9 C

6.9 C

6.9 C

240 W/m

0.00 mm

10:35

7.1 C

1023.6 hpa

89 %

3.2 km/h aus 115

6.4 km/h aus WSW

5.4 C

7.1 C

7.1 C

7.1 C

247 W/m

0.00 mm

10:40

7.2 C

1023.6 hpa

89 %

4.8 km/h aus 115

8.0 km/h aus WSW

5.5 C

6.7 C

6.6 C

7.2 C

253 W/m

0.00 mm

10:45

7.3 C

1023.6 hpa

89 %

3.2 km/h aus 117

6.4 km/h aus W

5.6 C

7.4 C

7.3 C

7.4 C

220 W/m

0.00 mm

10:50

7.3 C

1023.6 hpa

88 %

3.2 km/h aus 117

4.8 km/h aus W

5.5 C

7.3 C

7.3 C

7.3 C

260 W/m

0.00 mm

10:55

7.6 C

1023.6 hpa

87 %

3.2 km/h aus 116

8.0 km/h aus W

5.6 C

7.6 C

7.6 C

7.6 C

261 W/m

0.00 mm

11:00

7.7 C

1023.5 hpa

87 %

3.2 km/h aus 115

8.0 km/h aus WSW

5.6 C

7.7 C

7.7 C

7.7 C

266 W/m

0.00 mm

11:05

7.7 C

1023.5 hpa

86 %

4.8 km/h aus 115

9.7 km/h aus WSW

5.5 C

7.2 C

7.2 C

7.7 C

272 W/m

0.00 mm

11:10

7.7 C

1023.5 hpa

84 %

4.8 km/h aus 116

6.4 km/h aus W

5.1 C

7.2 C

7.2 C

7.6 C

276 W/m

0.00 mm

11:15

7.8 C

1023.4 hpa

86 %

3.2 km/h aus 117

6.4 km/h aus WSW

5.6 C

7.8 C

7.8 C

7.8 C

278 W/m

0.00 mm

11:20

7.9 C

1023.4 hpa

85 %

1.6 km/h aus 117

6.4 km/h aus WSW

5.6 C

7.9 C

7.9 C

7.9 C

279 W/m

0.00 mm

11:25

8.1 C

1023.4 hpa

83 %

3.2 km/h aus 115

4.8 km/h aus WSW

5.4 C

8.1 C

8.1 C

8.1 C

279 W/m

0.00 mm

11:30

8.3 C

1023.4 hpa

83 %

3.2 km/h aus 113

4.8 km/h aus WSW

5.6 C

8.2 C

8.3 C

8.2 C

280 W/m

0.00 mm

11:35

8.3 C

1023.4 hpa

82 %

3.2 km/h aus 117

6.4 km/h aus WSW

5.4 C

8.3 C

8.3 C

8.3 C

279 W/m

0.00 mm

11:40

8.4 C

1023.4 hpa

81 %

3.2 km/h aus 117

6.4 km/h aus SSW

5.3 C

8.3 C

8.4 C

8.3 C

279 W/m

0.00 mm

11:45

8.6 C

1023.4 hpa

80 %

3.2 km/h aus 117

4.8 km/h aus SSW

5.4 C

8.6 C

8.6 C

8.6 C

283 W/m

0.00 mm

11:50

8.6 C

1023.4 hpa

79 %

3.2 km/h aus 115

6.4 km/h aus SSW

5.2 C

8.5 C

8.6 C

8.5 C

285 W/m

0.00 mm

11:55

8.8 C

1023.4 hpa

80 %

3.2 km/h aus 116

8.0 km/h aus SSW

5.5 C

8.7 C

8.8 C

8.7 C

285 W/m

0.00 mm

12:00

8.9 C

1023.4 hpa

79 %

1.6 km/h aus 117

4.8 km/h aus SW

5.5 C

8.9 C

8.9 C

8.9 C

283 W/m

0.00 mm

12:05

8.8 C

1023.4 hpa

78 %

3.2 km/h aus 117

6.4 km/h aus SW

5.2 C

8.7 C

8.8 C

8.7 C

284 W/m

0.00 mm

12:10

9.2 C

1023.4 hpa

78 %

4.8 km/h aus 117

6.4 km/h aus SW

5.5 C

8.8 C

8.9 C

9.1 C

281 W/m

0.00 mm

12:15

9.2 C

1023.3 hpa

77 %

3.2 km/h aus 114

6.4 km/h aus W

5.4 C

9.1 C

9.2 C

9.1 C

281 W/m

0.00 mm

12:20

9.2 C

1023.3 hpa

75 %

4.8 km/h aus 114

11.3 km/h aus W

5.0 C

8.8 C

8.9 C

9.1 C

280 W/m

0.00 mm

12:25

9.2 C

1023.3 hpa

74 %

4.8 km/h aus 117

8.0 km/h aus WSW

4.8 C

8.7 C

8.9 C

9.0 C

283 W/m

0.00 mm

12:30

9.2 C

1023.4 hpa

75 %

4.8 km/h aus 116

8.0 km/h aus WNW

5.0 C

8.7 C

8.9 C

9.0 C

276 W/m

0.00 mm

12:35

9.2 C

1023.4 hpa

73 %

6.4 km/h aus 117

9.7 km/h aus WSW

4.6 C

8.3 C

8.5 C

9.0 C

273 W/m

0.00 mm

12:40

9.4 C

1023.4 hpa

73 %

4.8 km/h aus 114

8.0 km/h aus W

4.8 C

8.9 C

9.1 C

9.2 C

272 W/m

0.00 mm

12:45

9.4 C

1023.2 hpa

72 %

4.8 km/h aus 116

11.3 km/h aus WSW

4.6 C

8.9 C

9.2 C

9.2 C

277 W/m

0.00 mm

12:50

9.4 C

1023.2 hpa

71 %

6.4 km/h aus 116

8.0 km/h aus WNW

4.4 C

8.4 C

8.7 C

9.2 C

273 W/m

0.00 mm

12:55

9.5 C

1023.2 hpa

71 %

4.8 km/h aus 117

8.0 km/h aus WNW

4.5 C

9.0 C

9.2 C

9.3 C

264 W/m

0.00 mm

13:00

9.3 C

1023.1 hpa

71 %

4.8 km/h aus 117

9.7 km/h aus W

4.3 C

8.8 C

9.1 C

9.1 C

257 W/m

0.00 mm

13:05

9.4 C

1023.1 hpa

67 %

6.4 km/h aus 113

14.5 km/h aus W

3.6 C

8.4 C

8.7 C

9.1 C

258 W/m

0.00 mm

13:10

9.5 C

1023.1 hpa

69 %

8.0 km/h aus 113

16.1 km/h aus WSW

4.1 C

8.2 C

8.4 C

9.3 C

247 W/m

0.00 mm

13:15

9.4 C

1023.0 hpa

67 %

8.0 km/h aus 117

12.9 km/h aus W

3.6 C

8.1 C

8.3 C

9.2 C

240 W/m

0.00 mm

13:20

9.3 C

1023.0 hpa

65 %

8.0 km/h aus 116

14.5 km/h aus WSW

3.1 C

7.9 C

8.2 C

9.0 C

229 W/m

0.00 mm

13:25

9.3 C

1023.0 hpa

65 %

9.7 km/h aus 116

16.1 km/h aus WSW

3.1 C

7.6 C

7.9 C

9.0 C

208 W/m

0.00 mm

13:30

9.3 C

1022.9 hpa

66 %

6.4 km/h aus 112

12.9 km/h aus WSW

3.3 C

8.3 C

8.6 C

9.0 C

95 W/m

0.00 mm

13:35

9.3 C

1022.9 hpa

65 %

8.0 km/h aus 115

14.5 km/h aus WSW

3.0 C

7.8 C

8.2 C

8.9 C

139 W/m

0.00 mm

13:40

9.3 C

1022.9 hpa

67 %

6.4 km/h aus 114

11.3 km/h aus WSW

3.5 C

8.3 C

8.6 C

9.1 C

114 W/m

0.00 mm

13:45

9.3 C

1022.9 hpa

63 %

6.4 km/h aus 117

11.3 km/h aus WSW

2.6 C

8.2 C

8.6 C

8.9 C

101 W/m

0.00 mm

13:50

9.2 C

1022.9 hpa

63 %

6.4 km/h aus 116

12.9 km/h aus WSW

2.5 C

8.1 C

8.5 C

8.8 C

106 W/m

0.00 mm

13:55

9.2 C

1022.9 hpa

64 %

8.0 km/h aus 114

17.7 km/h aus SW

2.7 C

7.7 C

8.1 C

8.8 C

103 W/m

0.00 mm

14:00

9.0 C

1022.9 hpa

64 %

6.4 km/h aus 117

12.9 km/h aus WSW

2.5 C

7.8 C

8.2 C

8.6 C

90 W/m

0.00 mm

14:05

8.8 C

1022.9 hpa

64 %

8.0 km/h aus 117

11.3 km/h aus W

2.4 C

7.3 C

7.7 C

8.4 C

87 W/m

0.00 mm

14:10

8.7 C

1022.9 hpa

66 %

4.8 km/h aus 117

16.1 km/h aus WSW

2.7 C

8.0 C

8.4 C

8.3 C

89 W/m

0.00 mm

14:15

8.8 C

1022.8 hpa

65 %

6.4 km/h aus 117

12.9 km/h aus WSW

2.6 C

7.6 C

8.0 C

8.4 C

72 W/m

0.00 mm

14:20

8.8 C

1022.8 hpa

63 %

4.8 km/h aus 114

9.7 km/h aus SW

2.1 C

8.1 C

8.4 C

8.4 C

78 W/m

0.00 mm

14:25

8.8 C

1022.8 hpa

62 %

6.4 km/h aus 115

17.7 km/h aus SSW

1.9 C

7.6 C

8.1 C

8.4 C

82 W/m

0.00 mm

14:30

8.8 C

1022.8 hpa

63 %

4.8 km/h aus 115

9.7 km/h aus SSW

2.2 C

8.1 C

8.5 C

8.4 C

65 W/m

0.00 mm

14:35

8.9 C

1022.8 hpa

63 %

6.4 km/h aus 117

11.3 km/h aus SW

2.2 C

7.7 C

8.1 C

8.5 C

79 W/m

0.00 mm

14:40

9.1 C

1022.8 hpa

62 %

4.8 km/h aus 117

14.5 km/h aus SSW

2.2 C

8.4 C

8.8 C

8.7 C

105 W/m

0.00 mm

14:45

9.1 C

1022.7 hpa

62 %

4.8 km/h aus 116

11.3 km/h aus WSW

2.2 C

8.4 C

8.8 C

8.7 C

92 W/m

0.00 mm

14:50

9.1 C

1022.7 hpa

61 %

4.8 km/h aus 114

9.7 km/h aus WSW

1.9 C

8.3 C

8.7 C

8.6 C

75 W/m

0.00 mm

14:55

9.0 C

1022.7 hpa

61 %

8.0 km/h aus 117

11.3 km/h aus SW

1.9 C

7.4 C

7.8 C

8.6 C

71 W/m

0.00 mm

15:00

8.9 C

1022.5 hpa

62 %

6.4 km/h aus 115

11.3 km/h aus WSW

2.0 C

7.7 C

8.2 C

8.5 C

58 W/m

0.00 mm

15:05

8.8 C

1022.5 hpa

63 %

4.8 km/h aus 118

9.7 km/h aus SW

2.2 C

8.1 C

8.5 C

8.4 C

48 W/m

0.00 mm

15:10

8.8 C

1022.5 hpa

64 %

6.4 km/h aus 117

14.5 km/h aus SSW

2.3 C

7.6 C

8.0 C

8.4 C

42 W/m

0.00 mm

15:15

8.7 C

1022.4 hpa

64 %

3.2 km/h aus 115

9.7 km/h aus S

2.2 C

8.3 C

8.7 C

8.3 C

38 W/m

0.00 mm

15:20

8.6 C

1022.4 hpa

65 %

4.8 km/h aus 115

16.1 km/h aus WSW

2.4 C

7.8 C

8.2 C

8.2 C

37 W/m

0.00 mm

15:25

8.6 C

1022.4 hpa

65 %

4.8 km/h aus 117

8.0 km/h aus SSW

2.3 C

7.8 C

8.2 C

8.2 C

37 W/m

0.00 mm

15:30

8.6 C

1022.4 hpa

66 %

6.4 km/h aus 117

16.1 km/h aus SW

2.6 C

7.3 C

7.7 C

8.2 C

32 W/m

0.00 mm

15:35

8.5 C

1022.4 hpa

67 %

4.8 km/h aus 117

9.7 km/h aus WSW

2.7 C

7.8 C

8.1 C

8.2 C

25 W/m

0.00 mm

15:40

8.4 C

1022.4 hpa

67 %

4.8 km/h aus 117

8.0 km/h aus WSW

2.6 C

7.7 C

8.0 C

8.1 C

21 W/m

0.00 mm

15:45

8.3 C

1022.4 hpa

68 %

3.2 km/h aus 114

8.0 km/h aus SW

2.7 C

7.9 C

8.3 C

7.9 C

19 W/m

0.00 mm

15:50

8.2 C

1022.4 hpa

68 %

3.2 km/h aus 113

8.0 km/h aus SW

2.6 C

7.8 C

8.2 C

7.8 C

17 W/m

0.00 mm

15:55

7.9 C

1022.4 hpa

68 %

3.2 km/h aus 117

6.4 km/h aus SW

2.4 C

7.6 C

7.9 C

7.6 C

15 W/m

0.00 mm

16:00

7.8 C

1022.4 hpa

69 %

4.8 km/h aus 116

9.7 km/h aus SW

2.4 C

7.1 C

7.3 C

7.5 C

13 W/m

0.00 mm

16:05

7.7 C

1022.4 hpa

70 %

4.8 km/h aus 115

8.0 km/h aus SW

2.5 C

6.9 C

7.2 C

7.4 C

12 W/m

0.00 mm

16:10

7.5 C

1022.4 hpa

70 %

3.2 km/h aus 117

6.4 km/h aus SW

2.4 C

7.2 C

7.5 C

7.2 C

10 W/m

0.00 mm

16:15

7.3 C

1022.4 hpa

71 %

3.2 km/h aus 114

6.4 km/h aus SW

2.4 C

7.1 C

7.3 C

7.1 C

8 W/m

0.00 mm

16:20

7.2 C

1022.4 hpa

71 %

3.2 km/h aus 114

6.4 km/h aus SW

2.3 C

6.9 C

7.2 C

6.9 C

6 W/m

0.00 mm

16:25

7.1 C

1022.4 hpa

71 %

3.2 km/h aus 116

6.4 km/h aus SW

2.2 C

6.8 C

7.1 C

6.8 C

3 W/m

0.00 mm

16:30

6.9 C

1022.3 hpa

71 %

3.2 km/h aus 117

6.4 km/h aus SSW

2.0 C

6.7 C

6.9 C

6.7 C

0 W/m

0.00 mm

16:35

6.7 C

1022.3 hpa

72 %

3.2 km/h aus 117

6.4 km/h aus SSW

2.0 C

6.4 C

6.7 C

6.4 C

0 W/m

0.00 mm

16:40

6.6 C

1022.3 hpa

72 %

4.8 km/h aus 116

6.4 km/h aus SSW

1.9 C

5.7 C

5.9 C

6.3 C

0 W/m

0.00 mm

16:45

6.3 C

1022.4 hpa

73 %

3.2 km/h aus 116

4.8 km/h aus SSW

1.8 C

6.0 C

6.3 C

6.0 C

0 W/m

0.00 mm

16:50

6.1 C

1022.4 hpa

74 %

1.6 km/h aus 113

4.8 km/h aus SSW

1.8 C

5.8 C

6.1 C

5.8 C

0 W/m

0.00 mm

16:55

5.8 C

1022.4 hpa

74 %

1.6 km/h aus 115

3.2 km/h aus SSW

1.6 C

5.6 C

5.8 C

5.6 C

0 W/m

0.00 mm

17:00

5.7 C

1022.3 hpa

74 %

3.2 km/h aus 117

3.2 km/h aus SSW

1.4 C

5.4 C

5.7 C

5.4 C

0 W/m

0.00 mm

17:05

5.5 C

1022.3 hpa

74 %

3.2 km/h aus 115

3.2 km/h aus SSW

1.2 C

5.3 C

5.5 C

5.3 C

0 W/m

0.00 mm

17:10

5.3 C

1022.3 hpa

74 %

1.6 km/h aus 117

3.2 km/h aus SSW

1.1 C

5.1 C

5.3 C

5.1 C

0 W/m

0.00 mm

17:15

5.1 C

1022.3 hpa

74 %

3.2 km/h aus 118

3.2 km/h aus SSW

0.8 C

4.8 C

5.0 C

4.8 C

0 W/m

0.00 mm

17:20

4.9 C

1022.3 hpa

75 %

3.2 km/h aus 116

3.2 km/h aus SSW

0.8 C

4.6 C

4.8 C

4.7 C

0 W/m

0.00 mm

17:25

4.7 C

1022.3 hpa

76 %

3.2 km/h aus 114

3.2 km/h aus SSW

0.8 C

4.4 C

4.6 C

4.5 C

0 W/m

0.00 mm

17:30

4.6 C

1022.3 hpa

76 %

3.2 km/h aus 114

3.2 km/h aus SSW

0.7 C

4.3 C

4.5 C

4.4 C

0 W/m

0.00 mm

17:35

4.4 C

1022.3 hpa

76 %

3.2 km/h aus 117

4.8 km/h aus SSW

0.6 C

4.1 C

4.3 C

4.2 C

0 W/m

0.00 mm

17:40

4.2 C

1022.3 hpa

76 %

3.2 km/h aus 117

3.2 km/h aus SSW

0.4 C

3.8 C

4.1 C

4.0 C

0 W/m

0.00 mm

17:45

4.0 C

1022.3 hpa

76 %

3.2 km/h aus 116

4.8 km/h aus SSW

0.1 C

3.6 C

3.8 C

3.8 C

0 W/m

0.00 mm

17:50

3.8 C

1022.3 hpa

77 %

3.2 km/h aus 117

4.8 km/h aus SSW

0.2 C

3.4 C

3.7 C

3.6 C

0 W/m

0.00 mm

17:55

3.7 C

1022.3 hpa

77 %

1.6 km/h aus 117

3.2 km/h aus SSW

0.0 C

3.4 C

3.7 C

3.4 C

0 W/m

0.00 mm

18:00

3.5 C

1022.3 hpa

77 %

1.6 km/h aus 114

3.2 km/h aus SSW

-0.2 C

3.3 C

3.5 C

3.3 C

0 W/m

0.00 mm

18:05

3.3 C

1022.3 hpa

77 %

1.6 km/h aus 114

3.2 km/h aus SSW

-0.3 C

3.1 C

3.3 C

3.1 C

0 W/m

0.00 mm

18:10

3.2 C

1022.3 hpa

78 %

1.6 km/h aus 114

3.2 km/h aus SSW

-0.3 C

3.0 C

3.2 C

3.0 C

0 W/m

0.00 mm

18:15

3.1 C

1022.0 hpa

79 %

3.2 km/h aus 117

4.8 km/h aus SSW

-0.2 C

2.6 C

2.8 C

2.9 C

0 W/m

0.00 mm

18:20

2.9 C

1022.0 hpa

79 %

3.2 km/h aus 118

4.8 km/h aus SSW

-0.3 C

2.5 C

2.7 C

2.8 C

0 W/m

0.00 mm

18:25

2.8 C

1022.0 hpa

80 %

3.2 km/h aus 117

4.8 km/h aus SSW

-0.3 C

2.4 C

2.6 C

2.7 C

0 W/m

0.00 mm

18:30

2.8 C

1022.0 hpa

81 %

3.2 km/h aus 116

4.8 km/h aus SSW

-0.2 C

2.3 C

2.5 C

2.6 C

0 W/m

0.00 mm

18:35

2.7 C

1022.0 hpa

81 %

1.6 km/h aus 116

4.8 km/h aus SSW

-0.3 C

2.5 C

2.7 C

2.5 C

0 W/m

0.00 mm

18:40

2.6 C

1022.0 hpa

81 %

3.2 km/h aus 116

6.4 km/h aus SSW

-0.3 C

2.1 C

2.3 C

2.4 C

0 W/m

0.00 mm

18:45

2.5 C

1022.1 hpa

81 %

1.6 km/h aus 113

3.2 km/h aus SSW

-0.4 C

2.3 C

2.5 C

2.3 C

0 W/m

0.00 mm

18:50

2.4 C

1022.1 hpa

81 %

1.6 km/h aus 114

3.2 km/h aus SSW

-0.5 C

2.3 C

2.4 C

2.3 C

0 W/m

0.00 mm

18:55

2.3 C

1022.1 hpa

81 %

1.6 km/h aus 115

3.2 km/h aus SSW

-0.6 C

2.2 C

2.3 C

2.2 C

0 W/m

0.00 mm

19:00

2.2 C

1021.9 hpa

81 %

3.2 km/h aus 117

4.8 km/h aus SSW

-0.7 C

1.7 C

1.9 C

2.1 C

0 W/m

0.00 mm

19:05

2.1 C

1021.9 hpa

82 %

1.6 km/h aus 117

3.2 km/h aus SSW

-0.6 C

1.9 C

2.1 C

1.9 C

0 W/m

0.00 mm

19:10

2.0 C

1021.9 hpa

82 %

1.6 km/h aus 117

3.2 km/h aus SSW

-0.8 C

1.8 C

2.0 C

1.8 C

0 W/m

0.00 mm

19:15

1.9 C

1021.9 hpa

82 %

1.6 km/h aus 117

3.2 km/h aus SSW

-0.8 C

1.8 C

1.9 C

1.8 C

0 W/m

0.00 mm

19:20

1.9 C

1021.9 hpa

83 %

3.2 km/h aus 116

4.8 km/h aus SSW

-0.7 C

1.4 C

1.5 C

1.8 C

0 W/m

0.00 mm

19:25

1.8 C

1021.9 hpa

83 %

3.2 km/h aus 114

4.8 km/h aus SSW

-0.7 C

1.3 C

1.4 C

1.7 C

0 W/m

0.00 mm

19:30

1.8 C

1021.9 hpa

83 %

3.2 km/h aus 114

3.2 km/h aus SSW

-0.8 C

1.3 C

1.4 C

1.7 C

0 W/m

0.00 mm

19:35

1.7 C

1021.9 hpa

84 %

3.2 km/h aus 114

3.2 km/h aus SSW

-0.7 C

1.2 C

1.3 C

1.6 C

0 W/m

0.00 mm

19:40

1.7 C

1021.9 hpa

84 %

3.2 km/h aus 117

3.2 km/h aus SSW

-0.7 C

1.2 C

1.3 C

1.6 C

0 W/m

0.00 mm

19:45

1.7 C

1022.0 hpa

84 %

3.2 km/h aus 117

3.2 km/h aus SSW

-0.7 C

1.2 C

1.3 C

1.6 C

0 W/m

0.00 mm

19:50

1.7 C

1022.0 hpa

85 %

3.2 km/h aus 115

4.8 km/h aus SSW

-0.6 C

1.2 C

1.3 C

1.6 C

0 W/m

0.00 mm

19:55

1.7 C

1022.0 hpa

86 %

3.2 km/h aus 115

4.8 km/h aus SSW

-0.4 C

1.2 C

1.3 C

1.6 C

0 W/m

0.00 mm

20:00

1.8 C

1021.8 hpa

87 %

3.2 km/h aus 117

4.8 km/h aus SSW

-0.2 C

1.3 C

1.4 C

1.7 C

0 W/m

0.00 mm

20:05

1.8 C

1021.8 hpa

87 %

3.2 km/h aus 117

4.8 km/h aus SSW

-0.1 C

1.3 C

1.4 C

1.7 C

0 W/m

0.00 mm

20:10

1.9 C

1021.8 hpa

88 %

3.2 km/h aus 114

4.8 km/h aus SSW

0.1 C

1.4 C

1.5 C

1.8 C

0 W/m

0.00 mm

20:15

2.0 C

1021.8 hpa

89 %

4.8 km/h aus 114

6.4 km/h aus SSW

0.4 C

0.7 C

0.8 C

1.9 C

0 W/m

0.00 mm

20:20

2.2 C

1021.8 hpa

90 %

4.8 km/h aus 116

6.4 km/h aus SSW

0.7 C

0.9 C

0.9 C

2.1 C

0 W/m

0.00 mm

20:25

2.4 C

1021.8 hpa

90 %

6.4 km/h aus 117

8.0 km/h aus SSW

0.9 C

0.5 C

0.6 C

2.3 C

0 W/m

0.00 mm

20:30

2.7 C

1021.5 hpa

91 %

6.4 km/h aus 116

8.0 km/h aus S

1.4 C

0.9 C

0.9 C

2.7 C

0 W/m

0.00 mm

20:35

2.9 C

1021.5 hpa

92 %

6.4 km/h aus 115

8.0 km/h aus S

1.8 C

1.2 C

1.2 C

2.9 C

0 W/m

0.00 mm

20:40

3.2 C

1021.5 hpa

92 %

8.0 km/h aus 115

12.9 km/h aus SSE

2.0 C

0.9 C

1.0 C

3.1 C

0 W/m

0.00 mm

20:45

3.2 C

1021.3 hpa

92 %

8.0 km/h aus 116

11.3 km/h aus SSE

2.0 C

1.0 C

1.1 C

3.2 C

0 W/m

0.00 mm

20:50

3.3 C

1021.3 hpa

92 %

8.0 km/h aus 113

11.3 km/h aus S

2.2 C

1.1 C

1.2 C

3.3 C

0 W/m

0.00 mm

20:55

3.4 C

1021.3 hpa

92 %

8.0 km/h aus 115

11.3 km/h aus S

2.3 C

1.3 C

1.3 C

3.4 C

0 W/m

0.00 mm

21:00

3.6 C

1021.3 hpa

92 %

9.7 km/h aus 116

14.5 km/h aus SSE

2.4 C

1.1 C

1.1 C

3.6 C

0 W/m

0.00 mm

21:05

3.7 C

1021.3 hpa

92 %

9.7 km/h aus 117

17.7 km/h aus S

2.5 C

1.2 C

1.2 C

3.7 C

0 W/m

0.00 mm

21:10

3.8 C

1021.3 hpa

92 %

8.0 km/h aus 116

14.5 km/h aus S

2.6 C

1.7 C

1.7 C

3.7 C

0 W/m

0.00 mm

21:15

3.9 C

1021.2 hpa

92 %

8.0 km/h aus 117

9.7 km/h aus S

2.7 C

1.8 C

1.8 C

3.8 C

0 W/m

0.00 mm

21:20

4.0 C

1021.2 hpa

92 %

6.4 km/h aus 116

11.3 km/h aus S

2.8 C

2.4 C

2.4 C

3.9 C

0 W/m

0.00 mm

21:25

4.1 C

1021.2 hpa

92 %

6.4 km/h aus 114

9.7 km/h aus S

2.9 C

2.5 C

2.5 C

4.1 C

0 W/m

0.00 mm

21:30

4.1 C

1021.2 hpa

92 %

6.4 km/h aus 114

11.3 km/h aus S

2.9 C

2.6 C

2.6 C

4.1 C

0 W/m

0.00 mm

21:35

4.2 C

1021.2 hpa

91 %

8.0 km/h aus 116

12.9 km/h aus S

2.9 C

2.2 C

2.2 C

4.2 C

0 W/m

0.00 mm

21:40

4.3 C

1021.2 hpa

91 %

8.0 km/h aus 117

11.3 km/h aus S

2.9 C

2.2 C

2.3 C

4.2 C

0 W/m

0.00 mm

21:45

4.4 C

1020.8 hpa

91 %

6.4 km/h aus 117

11.3 km/h aus S

3.0 C

2.8 C

2.9 C

4.3 C

0 W/m

0.00 mm

21:50

4.4 C

1020.8 hpa

91 %

6.4 km/h aus 117

9.7 km/h aus S

3.1 C

2.9 C

2.9 C

4.4 C

0 W/m

0.00 mm

21:55

4.5 C

1020.8 hpa

90 %

6.4 km/h aus 115

9.7 km/h aus S

3.0 C

2.9 C

3.0 C

4.4 C

0 W/m

0.00 mm

22:00

4.6 C

1020.8 hpa

90 %

6.4 km/h aus 114

11.3 km/h aus S

3.1 C

3.0 C

3.1 C

4.5 C

0 W/m

0.00 mm

22:05

4.6 C

1020.8 hpa

90 %

6.4 km/h aus 116

11.3 km/h aus S

3.1 C

3.1 C

3.2 C

4.6 C

0 W/m

0.00 mm

22:10

4.7 C

1020.8 hpa

90 %

8.0 km/h aus 117

11.3 km/h aus S

3.2 C

2.7 C

2.7 C

4.6 C

0 W/m

0.00 mm

22:15

4.7 C

1020.8 hpa

89 %

6.4 km/h aus 117

9.7 km/h aus S

3.1 C

3.2 C

3.3 C

4.7 C

0 W/m

0.00 mm

22:20

4.8 C

1020.8 hpa

89 %

6.4 km/h aus 117

11.3 km/h aus SSW

3.1 C

3.3 C

3.3 C

4.7 C

0 W/m

0.00 mm

22:25

4.8 C

1020.8 hpa

88 %

6.4 km/h aus 117

14.5 km/h aus SSW

3.0 C

3.3 C

3.4 C

4.8 C

0 W/m

0.00 mm

22:30

4.9 C

1020.8 hpa

87 %

8.0 km/h aus 116

14.5 km/h aus SSW

3.0 C

2.9 C

3.1 C

4.8 C

0 W/m

0.00 mm

22:35

5.0 C

1020.8 hpa

86 %

6.4 km/h aus 114

14.5 km/h aus S

2.9 C

3.5 C

3.6 C

4.9 C

0 W/m

0.00 mm

22:40

5.1 C

1020.8 hpa

86 %

8.0 km/h aus 115

16.1 km/h aus S

2.9 C

3.1 C

3.2 C

4.9 C

0 W/m

0.00 mm

22:45

5.1 C

1020.8 hpa

85 %

11.3 km/h aus 118

17.7 km/h aus S

2.8 C

2.4 C

2.5 C

5.0 C

0 W/m

0.00 mm

22:50

5.1 C

1020.8 hpa

85 %

9.7 km/h aus 117

16.1 km/h aus S

2.8 C

2.7 C

2.8 C

5.0 C

0 W/m

0.00 mm

22:55

5.1 C

1020.8 hpa

85 %

8.0 km/h aus 117

12.9 km/h aus S

2.8 C

3.1 C

3.2 C

5.0 C

0 W/m

0.00 mm

23:00

5.1 C

1020.7 hpa

85 %

8.0 km/h aus 116

12.9 km/h aus S

2.8 C

3.1 C

3.2 C

5.0 C

0 W/m

0.00 mm

23:05

5.1 C

1020.7 hpa

85 %

8.0 km/h aus 114

14.5 km/h aus S

2.7 C

3.1 C

3.2 C

4.9 C

0 W/m

0.00 mm

23:10

5.1 C

1020.7 hpa

85 %

6.4 km/h aus 114

8.0 km/h aus SSE

2.7 C

3.6 C

3.7 C

4.9 C

0 W/m

0.00 mm

23:15

5.1 C

1020.5 hpa

85 %

6.4 km/h aus 116

8.0 km/h aus S

2.7 C

3.6 C

3.7 C

4.9 C

0 W/m

0.00 mm

23:20

4.9 C

1020.5 hpa

85 %

6.4 km/h aus 117

11.3 km/h aus SSW

2.6 C

3.4 C

3.6 C

4.8 C

0 W/m

0.00 mm

23:25

4.9 C

1020.5 hpa

84 %

6.4 km/h aus 117

14.5 km/h aus SSW

2.5 C

3.4 C

3.6 C

4.8 C

0 W/m

0.00 mm

23:30

4.9 C

1020.4 hpa

84 %

4.8 km/h aus 116

8.0 km/h aus SSW

2.4 C

3.9 C

4.1 C

4.8 C

0 W/m

0.00 mm

23:35

4.8 C

1020.4 hpa

84 %

6.4 km/h aus 114

12.9 km/h aus SSW

2.4 C

3.3 C

3.4 C

4.7 C

0 W/m

0.00 mm

23:40

4.8 C

1020.4 hpa

84 %

6.4 km/h aus 115

11.3 km/h aus SSW

2.4 C

3.3 C

3.4 C

4.7 C

0 W/m

0.00 mm

23:45

4.8 C

1020.3 hpa

84 %

8.0 km/h aus 114

11.3 km/h aus SSW

2.4 C

2.8 C

2.9 C

4.7 C

0 W/m

0.00 mm

23:50

4.9 C

1020.3 hpa

84 %

6.4 km/h aus 117

16.1 km/h aus SW

2.4 C

3.4 C

3.5 C

4.8 C

0 W/m

0.00 mm

23:55

4.9 C

1020.3 hpa

84 %

6.4 km/h aus 117

9.7 km/h aus SSW

2.4 C

3.4 C

3.5 C

4.8 C

0 W/m

0.00 mm